Salisbury, MD

5:36 AM EST on January 24, 2017 (GMT -0500)
Salisbury-Ocean City Wicomico Regional

Weather History for KSBY - December, 2013

Change the Weather History Date:

Thursday, December 5, 2013

  Actual Average Record
Temperature  
Mean Temperature 57 °F 42 °F  
Max Temperature 66 °F 51 °F 76 °F (1998)
Min Temperature 47 °F 32 °F 16 °F (1919)
Degree Days  
Heating Degree Days 8 23  
Month to date heating degree days 90 112  
Since 1 July heating degree days 795 930  
Cooling Degree Days 0 0  
Month to date cooling degree days 0 0  
Year to date cooling degree days 1628 1153  
Growing Degree Days 7 (Base 50)    
Moisture  
Dew Point 55 °F    
Average Humidity 87    
Maximum Humidity 96    
Minimum Humidity 78    
Precipitation  
Precipitation T in 0.13 in 1.90 in (1927)
Month to date precipitation T 0.64  
Year to date precipitation 45.61 42.61  
Snow  
Snow 0.00 in 0.00 in 1.00 in (2005)
Month to date snowfall 0.0 0.2  
Since 1 July snowfall 0.0 0.4  
Snow Depth 0.00 in    
Sea Level Pressure  
Sea Level Pressure 30.07 in    
Wind  
Wind Speed 8 mph (South)    
Max Wind Speed 16 mph    
Max Gust Speed 22 mph    
Visibility 4 miles    
Events Fog , Rain    
T = Trace of Precipitation, MM = Missing Value Source: NWS Daily Summary

Daily Weather History Graph

Daily Weather History Graph

Search for Another Location

Airport or City:

Trip Planner

Search our weather history database for the weather conditions in past years. The results will help you decide how hot, cold, wet, or windy it might be!

Date:

Astronomy

Dec. 05, 2013 Rise Set
Actual Time 7:04 AM EST 4:41 PM EST
Civil Twilight 6:34 AM EST 5:10 PM EST
Nautical Twilight 6:01 AM EST 5:43 PM EST
Astronomical Twilight 5:29 AM EST 6:15 PM EST
Moon 9:23 AM EST (12/5) 7:58 PM EST (12/5)
Length of Visible Light 10h 36m
Length of Day
9h 37m
Waxing Crescent, 10% of the Moon is Illuminated
Dec 5
Waxing Crescent
Dec 9
First Quarter
Dec 17
Full
Dec 25
Last Quarter
Jan 1
New

Hourly Weather History & Observations

Time (EST) Temp. Dew Point Humidity Pressure Visibility Wind Dir Wind Speed Gust Speed Precip Events Conditions
12:11 AM 53.6 °F 51.8 °F 94% 30.10 in 0.2 mi Calm Calm - N/A Fog Fog
12:25 AM 53.6 °F 51.8 °F 94% 30.10 in 0.2 mi Calm Calm - N/A Fog Fog
12:50 AM 53.6 °F 51.8 °F 94% 30.10 in 0.5 mi Calm Calm - N/A Fog Fog
12:54 AM 53.1 °F 51.1 °F 93% 30.10 in 0.5 mi Calm Calm - N/A Fog Fog
1:15 AM 53.6 °F 51.8 °F 94% 30.09 in 0.2 mi Calm Calm - N/A Fog Fog
1:30 AM 53.6 °F 50.0 °F 88% 30.09 in 0.2 mi Calm Calm - N/A Fog Fog
1:51 AM 51.8 °F 50.0 °F 94% 30.09 in 0.2 mi Calm Calm - N/A Fog Fog
1:54 AM 51.1 °F 50.0 °F 96% 30.10 in 0.2 mi Calm Calm - N/A Fog Fog
2:54 AM 48.9 °F 46.9 °F 93% 30.09 in 0.2 mi Calm Calm - N/A Fog Fog
3:54 AM 48.0 °F 46.0 °F 93% 30.08 in 0.2 mi East 3.5 mph - N/A Fog Fog
4:54 AM 48.0 °F 46.0 °F 93% 30.09 in 0.2 mi Calm Calm - N/A Fog Fog
5:54 AM 48.0 °F 46.0 °F 93% 30.10 in 0.2 mi ESE 3.5 mph - N/A Fog Fog
6:07 AM 48.2 °F 44.6 °F 87% 30.09 in 0.2 mi ESE 3.5 mph - N/A Fog Fog
6:14 AM 48.2 °F 46.4 °F 93% 30.09 in 0.5 mi Calm Calm - N/A Fog Fog
6:54 AM 50.0 °F 46.9 °F 89% 30.10 in 0.2 mi Calm Calm - N/A Fog Fog
7:01 AM 50.0 °F 48.2 °F 94% 30.09 in 0.8 mi SE 3.5 mph - N/A Fog Fog
7:20 AM 51.8 °F 48.2 °F 88% 30.10 in 0.2 mi SE 3.5 mph - N/A Fog Fog
7:54 AM 51.1 °F 48.9 °F 92% 30.11 in 0.2 mi SSE 3.5 mph - N/A Fog Fog
8:18 AM 53.6 °F 51.8 °F 94% 30.10 in 0.8 mi South 3.5 mph - N/A Fog Fog
8:23 AM 53.6 °F 51.8 °F 94% 30.10 in 2.0 mi SSE 3.5 mph - N/A Fog Fog
8:33 AM 53.6 °F 51.8 °F 94% 30.11 in 4.0 mi South 3.5 mph - N/A Fog Fog
8:41 AM 53.6 °F 51.8 °F 94% 30.11 in 2.5 mi South 5.8 mph - N/A   Overcast
8:49 AM 53.6 °F 51.8 °F 94% 30.12 in 2.5 mi South 6.9 mph - N/A   Overcast
8:54 AM 54.0 °F 52.0 °F 93% 30.12 in 2.5 mi South 5.8 mph - N/A   Overcast
9:21 AM 55.4 °F 53.6 °F 94% 30.12 in 2.5 mi South 4.6 mph - N/A   Overcast
9:54 AM 57.0 °F 55.0 °F 93% 30.13 in 2.5 mi South 5.8 mph - N/A   Overcast
10:08 AM 57.2 °F 55.4 °F 94% 30.12 in 2.0 mi SSW 8.1 mph - N/A   Overcast
10:54 AM 59.0 °F 55.9 °F 90% 30.11 in 2.0 mi SSW 6.9 mph - N/A   Overcast
11:01 AM 60.8 °F 57.2 °F 88% 30.10 in 3.0 mi South 5.8 mph - N/A   Overcast
11:42 AM 62.6 °F 57.2 °F 82% 30.07 in 7.0 mi SSW 8.1 mph - N/A   Partly Cloudy
11:54 AM 64.9 °F 57.9 °F 78% 30.08 in 6.0 mi SSW 9.2 mph - N/A   Haze
12:09 PM 64.4 °F 57.2 °F 77% 30.06 in 8.0 mi SW 10.4 mph - N/A   Mostly Cloudy
12:42 PM 62.6 °F 57.2 °F 82% 30.05 in 8.0 mi SSW 10.4 mph - N/A   Overcast
12:54 PM 62.1 °F 57.0 °F 84% 30.05 in 8.0 mi SSW 12.7 mph - N/A   Overcast
1:54 PM 64.0 °F 57.9 °F 80% 30.04 in 9.0 mi South 10.4 mph - N/A   Overcast
2:09 PM 64.4 °F 57.2 °F 77% 30.03 in 9.0 mi SSW 10.4 mph - N/A   Overcast
2:17 PM 64.4 °F 57.2 °F 77% 30.02 in 9.0 mi South 11.5 mph - N/A   Overcast
2:54 PM 64.0 °F 59.0 °F 84% 30.03 in 5.0 mi SSW 12.7 mph - 0.00 in Rain Light Rain
3:25 PM 62.6 °F 60.8 °F 94% 30.02 in 3.0 mi South 9.2 mph - 0.00 in Rain Light Rain
3:32 PM 62.6 °F 60.8 °F 94% 30.01 in 2.0 mi South 9.2 mph - 0.00 in Rain Light Rain
3:37 PM 64.4 °F 60.8 °F 88% 30.01 in 3.0 mi South 8.1 mph - 0.00 in Rain Light Rain
3:44 PM 64.4 °F 60.8 °F 88% 30.01 in 4.0 mi South 5.8 mph - 0.00 in   Overcast
3:54 PM 64.0 °F 61.0 °F 90% 30.03 in 5.0 mi SSW 8.1 mph - 0.00 in   Overcast
4:02 PM 64.4 °F 60.8 °F 88% 30.03 in 5.0 mi SW 9.2 mph - N/A   Overcast
4:10 PM 64.4 °F 60.8 °F 88% 30.03 in 5.0 mi SSW 10.4 mph - N/A   Overcast
4:54 PM 64.0 °F 61.0 °F 90% 30.04 in 8.0 mi SSW 9.2 mph - N/A   Overcast
5:54 PM 64.0 °F 60.1 °F 87% 30.04 in 9.0 mi SSW 6.9 mph - N/A   Overcast
6:54 PM 64.0 °F 60.1 °F 87% 30.04 in 10.0 mi South 10.4 mph - N/A   Overcast
7:54 PM 64.9 °F 60.1 °F 84% 30.03 in 10.0 mi SSW 13.8 mph - N/A   Overcast
8:54 PM 66.0 °F 61.0 °F 84% 30.03 in 10.0 mi SSW 12.7 mph 20.7 mph N/A   Mostly Cloudy
9:03 PM 66.2 °F 60.8 °F 83% 30.02 in 10.0 mi SSW 12.7 mph 20.7 mph N/A   Scattered Clouds
9:54 PM 64.9 °F 61.0 °F 87% 30.02 in 10.0 mi SSW 13.8 mph - N/A   Clear
10:54 PM 66.0 °F 60.1 °F 81% 30.01 in 10.0 mi SSW 11.5 mph - N/A   Clear
11:54 PM 64.9 °F 60.1 °F 84% 30.00 in 10.0 mi SSW 10.4 mph - N/A   Scattered Clouds